AB9HP Weather Reports


Display with metric or nautical units.
time (UTC)temp
F
wind
direction
speed
MPH
gust
MPH
rain 1hr
in
rain 24hr
in
rain mn
in
humidity
%
barometer
mb
20260510184551 63 262 2.0 7.0 0.00 0.00 0.00 40 1018.4
20260510183044 63 274 2.0 10.0 0.00 0.00 0.00 41 1018.4
20260510181542 63 150 0.0 10.0 0.00 0.00 0.00 40 1018.4
20260510180045 63 322 3.0 8.0 0.00 0.00 0.00 43 1018.2
20260510174537 62 330 4.0 10.0 0.00 0.00 0.00 44 1018.4
20260510173037 62 252 2.0 7.0 0.00 0.00 0.00 42 1018.5
20260510171540 61 253 2.0 9.0 0.00 0.00 0.00 44 1018.5
20260510170029 60 343 0.0 10.0 0.00 0.00 0.00 49 1018.3
20260510164527 62 78 1.0 7.0 0.00 0.00 0.00 46 1018.1
20260510163026 60 252 1.0 8.0 0.00 0.00 0.00 49 1018.3
20260510161524 60 65 0.0 6.0 0.00 0.00 0.00 48 1018.3
20260510160022 59 97 2.0 10.0 0.00 0.00 0.00 51 1018.3
20260510154521 58 70 5.0 11.0 0.00 0.00 0.00 51 1018.3
20260510153033 57 48 2.0 10.0 0.00 0.00 0.00 52 1018.3
20260510151526 58 26 2.0 9.0 0.00 0.00 0.00 51 1018.2
20260510150015 57 98 4.0 10.0 0.00 0.00 0.00 52 1018.2
20260510144512 57 63 2.0 10.0 0.00 0.00 0.00 52 1018.0
20260510143008 56 79 4.0 14.0 0.00 0.00 0.00 52 1017.7
20260510141507 54 24 4.0 15.0 0.00 0.00 0.00 54 1017.5
20260510140008 54 14 1.0 9.0 0.00 0.00 0.00 56 1017.4
20260510134502 53 109 4.0 11.0 0.00 0.00 0.00 57 1017.3
20260510133101 53 41 2.0 12.0 0.00 0.00 0.00 58 1017.1
20260510131556 52 245 4.0 14.0 0.00 0.00 0.00 59 1016.9
20260510130054 52 68 3.0 11.0 0.00 0.00 0.00 62 1016.6
20260510124605 51 22 5.0 16.0 0.00 0.00 0.00 64 1016.5
20260510123048 51 55 4.0 12.0 0.00 0.00 0.00 66 1016.4
20260510121544 51 30 5.0 17.0 0.00 0.00 0.00 68 1016.0
20260510120041 51 22 2.0 16.0 0.00 0.00 0.00 69 1015.7
20260510114538 51 39 10.0 17.0 0.00 0.00 0.00 68 1015.6
20260510113039 52 29 5.0 11.0 0.00 0.00 0.00 69 1015.1
20260510111530 53 36 1.0 7.0 0.00 0.00 0.00 69 1014.9
20260510110039 53 356 0.0 7.0 0.00 0.00 0.00 68 1014.8
20260510104524 54 335 0.0 6.0 0.00 0.00 0.00 67 1014.3
20260510103019 54 354 2.0 9.0 0.00 0.00 0.00 67 1014.3
20260510101528 54 338 0.0 1.0 0.00 0.00 0.00 70 1013.6
20260510100019 54 338 0.0 2.0 0.00 0.00 0.00 71 1013.4
20260510094512 54 323 0.0 2.0 0.00 0.00 0.00 72 1013.2
20260510093009 54 328 0.0 3.0 0.00 0.00 0.00 72 1012.9
20260510091508 54 306 0.0 2.0 0.00 0.00 0.00 72 1013.1
20260510090011 55 296 0.0 1.0 0.00 0.00 0.00 70 1013.0
20260510084508 55 271 0.0 1.0 0.00 0.00 0.00 68 1013.2
20260510083005 55 266 0.0 1.0 0.00 0.00 0.00 65 1012.8
20260510081602 55 326 0.0 3.0 0.00 0.00 0.00 63 1012.3
20260510080054 55 309 0.0 4.0 0.00 0.00 0.00 63 1012.0
20260510074551 56 338 0.0 3.0 0.00 0.00 0.00 62 1011.9
20260510073047 56 332 0.0 3.0 0.00 0.00 0.00 62 1011.9
20260510071547 56 336 0.0 3.0 0.00 0.00 0.00 63 1012.0
20260510070049 56 296 0.0 4.0 0.00 0.00 0.00 62 1012.0
20260510064545 57 297 0.0 3.0 0.00 0.00 0.00 61 1011.9
20260510063041 57 263 0.0 4.0 0.00 0.00 0.00 61 1011.9
20260510061538 57 319 0.0 4.0 0.00 0.00 0.00 61 1011.5
20260510060037 57 320 0.0 3.0 0.00 0.00 0.00 61 1011.3
20260510054534 58 326 2.0 5.0 0.00 0.00 0.00 60 1011.3
20260510053032 58 316 0.0 3.0 0.00 0.00 0.00 61 1011.3
20260510051528 58 268 0.0 3.0 0.00 0.00 0.00 62 1011.0
20260510050030 58 284 0.0 1.0 0.00 0.00 0.00 61 1010.8
20260510044522 59 286 0.0 2.0 0.00 0.00 0.00 59 1010.5
20260510043018 60 288 0.0 6.0 0.00 0.00 0.00 58 1010.3
20260510041516 61 318 4.0 9.0 0.00 0.00 0.00 56 1010.1
20260510040011 62 4 4.0 12.0 0.00 0.00 0.00 56 1009.8
20260510034516 63 284 4.0 11.0 0.00 0.00 0.00 56 1009.7
20260510033005 64 296 3.0 10.0 0.00 0.00 0.00 55 1009.3
20260510031601 65 278 2.0 8.0 0.00 0.00 0.00 55 1009.0
20260510030058 66 211 4.0 13.0 0.00 0.00 0.00 58 1008.7
20260510024604 66 243 2.0 9.0 0.00 0.00 0.00 60 1008.4
20260510023054 66 249 1.0 8.0 0.00 0.00 0.00 65 1008.1
20260510021551 67 264 2.0 8.0 0.00 0.00 0.00 67 1007.9
20260510020053 67 217 2.0 6.0 0.00 0.00 0.00 70 1007.7
20260510014549 67 248 3.0 8.0 0.00 0.00 0.00 71 1007.5
20260510013047 67 251 4.0 9.0 0.00 0.00 0.00 70 1007.2
20260510011546 67 254 2.0 7.0 0.00 0.00 0.00 69 1006.9
20260510010044 68 242 3.0 9.0 0.00 0.00 0.00 68 1006.8
20260510004543 68 262 3.0 12.0 0.00 0.00 0.00 67 1006.6
20260510003054 68 228 3.0 10.0 0.00 0.00 0.00 67 1006.2
20260510001538 69 229 4.0 12.0 0.00 0.00 0.00 67 1006.0
20260510000039 70 259 4.0 13.0 0.00 0.00 0.00 64 1006.0
20260509234541 71 282 4.0 12.0 0.00 0.00 0.00 62 1005.9
20260509233036 72 234 6.0 17.0 0.00 0.00 0.00 60 1005.8
20260509231530 72 245 10.0 19.0 0.00 0.00 0.00 58 1005.8
20260509230032 71 242 4.0 14.0 0.00 0.00 0.00 59 1005.8
20260509224543 72 205 5.0 14.0 0.00 0.01 0.00 57 1005.7
20260509223027 71 216 9.0 16.0 0.00 0.01 0.00 58 1005.7
20260509221527 71 249 7.0 17.0 0.00 0.01 0.00 58 1005.6
20260509220023 71 228 8.0 19.0 0.00 0.01 0.00 57 1005.6
20260509214523 71 255 6.0 17.0 0.00 0.11 0.00 60 1005.4
20260509213020 72 224 9.0 22.0 0.00 0.11 0.00 57 1005.2
20260509211518 72 233 12.0 24.0 0.00 0.11 0.00 55 1005.3
20260509210018 72 201 9.0 25.0 0.00 0.11 0.00 58 1005.3
20260509204514 72 210 3.0 22.0 0.00 0.18 0.00 59 1005.4
20260509203012 72 292 9.0 23.0 0.00 0.18 0.00 57 1005.5
20260509201509 72 214 11.0 24.0 0.00 0.18 0.00 56 1005.6
20260509200009 72 259 9.0 20.0 0.00 0.18 0.00 56 1005.6
20260509194505 72 272 10.0 23.0 0.00 0.22 0.00 58 1005.7
20260509193007 71 214 10.0 22.0 0.00 0.22 0.00 60 1005.8
20260509191558 71 160 9.0 21.0 0.00 0.22 0.00 61 1005.9
20260509190057 70 233 7.0 23.0 0.00 0.22 0.00 64 1006.0